Location: Unspecified
(52.1971°N, 0.0000°E)
Time: 20:05:32
(UTC+00:00)

YUBILEINY - Pass Details

Date: 21 December 2019
Orbit: 1478 x 1509 km, 82.5° (Epoch: 24 January)

Event Time Altitude Azimuth Distance (km) Brightness Sun altitude
Rises 19:22:57 0° 163° (SSE) 4,603 ? -31.2°
Enters shadow 19:23:20 - 162° (SSE) 4,476 ? -31.2°
Exits shadow 19:42:19 10° 18° (NNE) 3,641 ? -34.1°
Sets 19:45:16 0° 13° (NNE) 4,613 ? -34.6°
